THORAD DELTA 1 DEB, 8162

Orbit data source: Space-Track

THORAD DELTA 1 DEB, 8162 is space debris in SSO originally from a launch on Fri, 15 Nov 1974 UTC launched from the Air Force Western Test Range (AFWTR). Debris objects in space refer to the collection of defunct objects orbiting the Earth. Examples of debris include non-operational satellites, rocket bodies, and fragments generated from explosions, collisions, or faulty payload assembly.

Loading next visibility...
Identifier
8162, 1974-089AC
Orbit
SSO
Last TLE update
15 hours ago
Origin
Manufacturer
Unknown
Mission
Spacecraft
Bus & Motor
Unknown
Mass
Unknown
Launch date (UTC)
1974-11-15 (51 years ago)
Launch vehicle
Unknown
Launch site
Air Force Western Test Range (AFWTR)
Object type
Payload
Rocket body
Debris
Shape & HBR
Unknown
Radar Cross Section
Small (<0.1 m²)

Expand to show TLE details & history

TLE from 15 hours ago
0 THORAD DELTA 1 DEB
1 08162U 74089AC  25189.66881793  .00001465  00000-0  95822-2 0  9992
2 08162 100.7886  84.7597 0137764 157.7965 231.1721 12.49749385276900
Epoch: 2025-07-08T16:03Z
TLE epoch observation values (Epoch: 2025-07-08T16:03:05.869Z)
Latitude
27.25744°
Longitude
-88.48175°
Altitude
1,537.272 km
Speed
7.069 km/s
True Right ascension
05h 16m 36s
True Declination
27° 07' 53"
Sunlit
Object was in daylight at epoch
Visualization orbit readout
Latitude
18.60421°
Longitude
-85.95824°
Altitude
1,546.735 km
Speed
7.059 km/s
Apparent Right ascension
06h 15m 48s
Apparent Declination
-7° 24' 10"
Sunlit
Object is in daylight
Visualization observer readout
Local Sidereal Time
19:31:54
Azimuth
32.746° NE
Elevation
-53.294°
Doppler factor
1
Orbital elements
Apogee altitude
1,571.059 km
Perigee altitude
1,355.013 km
Semi-major axis
7,841.173 km
Eccentricity
0.01378
Inclination
100.7886°
RAAN
84.7597°
Arg. of periapsis
157.7965°
True anomaly
Unknown
Mean anomaly
231.1721°
Eccentric anomaly
Unknown
Mean motion
3.12588 °/min
Orbital period
115.17 mins
BSTAR
0.0095822
Loading maneuver chart data...
Loading SW <> Apogee altitude chart data...
Loading historical data...
Loading historical data...
Loading historical data...
Loading historical data...
Loading historical data...
Loading historical data...
Loading historical data...

THORAD DELTA 1 DEB Visibility forecast

Observer location: undefined°, undefined°

Span
Click to sort rows by Start time (UTC) header in descending order
Start Az.
Max El. time (UTC)
Max El. Az.
Max El.
End time (UTC)
End Az.
9 mins2025-07-09 07:53:25.655Z343.473° N2025-07-09 07:57:25.655Z309.867° NW19.05°2025-07-09 08:02:25.655Z267.156° W
11 mins2025-07-09 15:08:25.655Z97.008° ESE2025-07-09 15:13:25.655Z54.906° ENE22.612°2025-07-09 15:19:25.655Z7.549° NNE
15 mins2025-07-09 16:58:25.655Z167.874° S2025-07-09 17:05:25.655Z229.742° WSW44.445°2025-07-09 17:13:25.655Z341.203° N
6 mins2025-07-09 18:57:25.655Z251.896° W2025-07-09 19:00:25.655Z274.482° WNW14.269°2025-07-09 19:03:25.655Z296.577° NW
13 mins2025-07-10 05:03:25.655Z35.586° NE2025-07-10 05:09:25.655Z96.658° ESE32.293°2025-07-10 05:16:25.655Z164.127° S
12 mins2025-07-10 06:57:25.655Z356.796° N2025-07-10 07:02:25.655Z303.256° NW34.198°2025-07-10 07:09:25.655Z230.652° WSW
|